STARLINK-2641 (48369 NORAD) Tracking and Keplerian Element Data

This shows tracking and keplerian element data for the satellite.

Feedback or suggestion? Click here.




ElementValue
Catalog48369
NameSTARLINK-2641
Epoch Orbit1459
Epoch Day215.06434589
Epoch Year2021
RAAN331.7778
Inclination53.0505
Eccentricity0.0001078
Argument of Perigee65.9766
Mean Anonmoly294.1335
Mean Motion15.06372675
Decay Rate1.809E-05
L11 48369U 21038S 21215.06434589 .00001809 00000-0 14043-3 0 9997
L22 48369 53.0505 331.7778 0001078 65.9766 294.1335 15.06372675 14599

Live tracking and technical data element details for STARLINK-2641 (NORAD 48369). STARLINK-2641 can be tracked NOW for your location showing map with azimuth and elevation plus other details from your city location.

Track the satellite on the map from your city or location and see movement details for azimuth, elevation, latitude, longitude, range, height, and movement on the map or in text.







IsCatalogInMostPopularTable: catalog: 48369, numindb: 32
Update: records affected: 1



GetName: 48369 STARLINK-2641

Hit Count: updated at: Tue, 03 Aug 2021 20:08:17 GMT